TimeEST,TemperatureF,Dew PointF,Humidity,Sea Level PressureIn,VisibilityMPH,Wind Direction,Wind SpeedMPH,Gust SpeedMPH,PrecipitationIn,Events,Conditions,WindDirDegrees,DateUTC
12:07 AM,35.6,35.6,100,30.43,2.5,Calm,Calm,-,N/A,,Clear,0,2012-11-12 05:07:00
12:25 AM,35.6,35.6,100,30.42,4.0,Calm,Calm,-,N/A,,Clear,0,2012-11-12 05:25:00
12:51 AM,35.1,34.0,96,30.43,2.5,Calm,Calm,-,N/A,,Clear,0,2012-11-12 05:51:00
1:16 AM,33.8,33.8,100,30.42,4.0,Calm,Calm,-,N/A,,Clear,0,2012-11-12 06:16:00
1:51 AM,35.1,34.0,96,30.44,4.0,Calm,Calm,-,N/A,,Clear,0,2012-11-12 06:51:00
2:51 AM,34.0,33.1,96,30.44,6.0,Calm,Calm,-,N/A,,Clear,0,2012-11-12 07:51:00
3:51 AM,33.1,33.1,100,30.43,3.0,Calm,Calm,-,N/A,,Clear,0,2012-11-12 08:51:00
4:51 AM,33.1,32.0,96,30.44,4.0,Calm,Calm,-,N/A,,Clear,0,2012-11-12 09:51:00
5:51 AM,30.9,30.0,96,30.45,2.5,Calm,Calm,-,N/A,,Clear,0,2012-11-12 10:51:00
6:07 AM,30.2,28.4,93,30.43,3.0,Calm,Calm,-,N/A,,Clear,0,2012-11-12 11:07:00
6:27 AM,30.2,30.2,100,30.43,2.5,Calm,Calm,-,N/A,,Clear,0,2012-11-12 11:27:00
6:34 AM,30.2,30.2,100,30.43,4.0,Calm,Calm,-,N/A,,Clear,0,2012-11-12 11:34:00
6:49 AM,30.2,30.2,100,30.43,1.8,Calm,Calm,-,N/A,,Clear,0,2012-11-12 11:49:00
6:51 AM,30.9,30.0,96,30.45,1.0,Calm,Calm,-,N/A,,Clear,0,2012-11-12 11:51:00
6:58 AM,30.2,30.2,100,30.43,0.5,Calm,Calm,-,N/A,Fog,Light Freezing Fog,0,2012-11-12 11:58:00
7:07 AM,30.2,30.2,100,30.43,0.2,Calm,Calm,-,N/A,Fog,Light Freezing Fog,0,2012-11-12 12:07:00
7:27 AM,32.0,30.2,93,30.44,2.0,Calm,Calm,-,N/A,,Clear,0,2012-11-12 12:27:00
7:37 AM,33.8,33.8,100,30.44,4.0,Calm,Calm,-,N/A,,Clear,0,2012-11-12 12:37:00
7:51 AM,37.0,35.1,93,30.45,4.0,Calm,Calm,-,N/A,,Clear,0,2012-11-12 12:51:00
8:51 AM,46.9,41.0,80,30.43,8.0,Calm,Calm,-,N/A,,Clear,0,2012-11-12 13:51:00
9:51 AM,55.0,44.1,67,30.43,10.0,SSE,9.2,-,N/A,,Clear,160,2012-11-12 14:51:00
10:51 AM,59.0,44.1,58,30.41,10.0,SSE,10.4,-,N/A,,Clear,160,2012-11-12 15:51:00
11:51 AM,63.0,44.1,50,30.38,10.0,SSE,8.1,-,N/A,,Clear,150,2012-11-12 16:51:00
12:51 PM,66.0,43.0,43,30.35,10.0,SSE,10.4,-,N/A,,Clear,150,2012-11-12 17:51:00
1:51 PM,66.0,46.0,48,30.35,10.0,SSE,10.4,-,N/A,,Clear,150,2012-11-12 18:51:00
2:51 PM,64.9,48.0,54,30.33,10.0,SSE,6.9,16.1,N/A,,Clear,160,2012-11-12 19:51:00
3:51 PM,63.0,46.0,54,30.32,10.0,SSE,10.4,-,N/A,,Clear,160,2012-11-12 20:51:00
4:51 PM,60.1,46.9,62,30.32,10.0,SSE,6.9,-,N/A,,Clear,160,2012-11-12 21:51:00
5:51 PM,59.0,48.9,69,30.31,10.0,SSE,6.9,-,N/A,,Clear,150,2012-11-12 22:51:00
6:51 PM,57.9,50.0,75,30.30,10.0,SSE,6.9,-,N/A,,Partly Cloudy,150,2012-11-12 23:51:00
7:51 PM,57.9,51.1,78,30.27,10.0,SSE,6.9,-,N/A,,Mostly Cloudy,150,2012-11-13 00:51:00
8:12 PM,57.2,51.8,82,30.25,10.0,SSE,8.1,-,N/A,,Scattered Clouds,160,2012-11-13 01:12:00
8:51 PM,57.9,53.1,84,30.25,10.0,SSE,8.1,-,N/A,,Scattered Clouds,160,2012-11-13 01:51:00
9:26 PM,57.2,53.6,88,30.24,10.0,South,8.1,-,N/A,,Overcast,170,2012-11-13 02:26:00
9:51 PM,57.9,53.1,84,30.24,10.0,SE,9.2,-,N/A,,Overcast,140,2012-11-13 02:51:00
10:02 PM,57.2,53.6,88,30.23,10.0,SSE,8.1,-,N/A,,Mostly Cloudy,160,2012-11-13 03:02:00
10:51 PM,57.9,53.1,84,30.21,10.0,SSE,8.1,-,N/A,,Overcast,150,2012-11-13 03:51:00
11:14 PM,57.2,53.6,88,30.21,10.0,SSE,9.2,-,N/A,,Overcast,150,2012-11-13 04:14:00
11:51 PM,59.0,55.0,87,30.20,10.0,SSE,10.4,17.3,N/A,,Overcast,160,2012-11-13 04:51:00